Current Version              Previous Version:    01  02  03  04  05  06  07  08  09  10  11  12  13  14  15  16  17  18  19  20  21  22  23  24  25  26  27  28  29  30  
   31  32  33  34  35  36  37  38  39  40  41  42  43  44  45  46  47  48  49  50  51  52  53  54  55  56  57  58  59  60  

[Printable]
369
ASUS44 KLUB 241401
RWRTX
WEST TEXAS WEATHER ROUNDUP
NATIONAL WEATHER SERVICE LUBBOCK TX
800 AM CST MON NOV 24 2014

NOTE: "FAIR" INDICATES FEW OR NO CLOUDS BELOW 12,000 FEET WITH NO
SIGNIFICANT WEATHER AND/OR OBSTRUCTIONS TO VISIBILITY.

TXZ004-006>008-010-012-014-016-OKZ002-241500-
TEXAS PANHANDLE/OKLAHOMA PANHANDLE

CITY           SKY/WX    TMP DP  RH WIND       PRES   REMARKS
AMARILLO       CLEAR     30  26  85 W7        30.01R WCI  23
BORGER         CLEAR     31  24  75 W7        30.01R WCI  24
CANADIAN       FAIR      32  26  77 S5        29.98S WCI  28
DALHART        CLEAR     26  22  84 W8        30.00R WCI  18
DUMAS            N/A     24  22  90 W9        29.99R WCI  15
GUYMON         CLEAR     30  21  69 W14       29.97R WCI  19
HEREFORD       CLEAR     26  25  94 SW7       30.04R WCI  19
PAMPA          CLEAR     27  23  82 W8        30.00R WCI  19
$$

TXZ026-029-035-045-048-241500-
SOUTHERN PANHANDLE/SOUTH PLAINS/ROLLING PLAINS

CITY           SKY/WX    TMP DP  RH WIND       PRES   REMARKS
CHILDRESS      CLOUDY    37  30  75 W3        30.03R
SEMINOLE       CLEAR     29  27  94 CALM      30.07S
LUBBOCK        PTCLDY    26  23  88 NW5       30.04R WCI  20
SNYDER         CLEAR     32  28  86 W5        30.07R WCI  27
$$

TXZ052-054-060>062-072-078-127-140-154-169-241500-
PERMIAN BASIN/CONCHO VALLEY/BIG COUNTRY/EDWARDS PLATEAU

CITY           SKY/WX    TMP DP  RH WIND       PRES   REMARKS
ABILENE        CLEAR     36  30  79 W5        30.07R WCI  32
BIG SPRING     CLEAR     36  30  80 CALM      30.09S
JUNCTION       PTCLDY    41  33  73 W8        30.08R
MIDLAND        CLEAR     36  29  75 NW8       30.06S WCI  30
ODESSA         CLEAR     34  28  79 NW8       30.07R WCI  27
SAN ANGELO     PTCLDY    39  31  72 W10       30.07R WCI  32
SONORA         PTCLDY    41  30  65 VRB5      30.12R
WINK           CLEAR     28  22  78 N5        30.07R WCI  23
$$

TXZ055-058-074-075-080-082-241500-
FAR WEST/SOUTHWEST MOUNTAINS/TRANS PECOS

CITY           SKY/WX    TMP DP  RH WIND       PRES   REMARKS
ALPINE         PTCLDY    32  21  64 SW5       30.16R WCI  27
DRYDEN           N/A     40  28  62 SW6       30.09R
EL PASO        MOCLDY    36   3  25 NE9       30.14R WCI  29
FORT STOCKTON  MOCLDY    39  27  62 W8        30.08R WCI  33
MARFA          PTCLDY    23  19  86 SE9       30.12R WCI  13
PECOS          PTCLDY    33  27  80 NW8       30.11R WCI  26
PRESIDIO       FAIR      39  25  58 CALM      30.14R
$$

TXZ014-016-019-021>030-083-241500
TEXAS TECH WEST TEXAS MESONET/TEXAS PANHANDLE/NORTHERN SOUTH PLAINS

CITY           SKY/WX    TMP DP  RH WIND       PRES   REMARKS
ABERNATHY 5ENE   N/A     26  25  95 W6        30.05R WCI  19
AMARILLO 9NNE    N/A     26  24  91 S1        30.02R
AMARILLO 7SSE    N/A     29  27  92 W8        30.02R WCI  21
AMHERST 1NE      N/A     27  25  93 W8        30.04R WCI  19
BOOTLEG 11WNW    N/A     26  23  88 W9        30.03R WCI  16
CANADIAN 6E      N/A     29  21  73 NW5       29.97R WCI  23
CAPROCK CYN SP   N/A     36  26  68 W8        30.02R WCI  29
CHILDRESS 2NNE   N/A     37  29  73 W7        30.02R WCI  31
CLARENDON 2WSW   N/A     28  23  81 CALM      30.00R
CLAUDE 12SW      N/A     33  26  75 W8        30.00R WCI  26
DIMMITT 2NE      N/A     26  24  91 W9        30.02R WCI  17
FLOYDADA 2NNE    N/A     26  25  94 W7        30.02S WCI  19
FRIONA 2NE       N/A     21  19  93 SW3       30.03R
GOODLETT 3W      N/A     38  29  68 W9        30.01S WCI  32
HART 3N          N/A     23  22  95 W6        30.03R WCI  15
HEREFORD 2NW     N/A     24  21  89 NW6       30.02R WCI  17
MCLEAN 1E        N/A     30  23  75 W7        29.98R WCI  23
MEMPHIS 1NE      N/A     38  26  62 NW5       30.00R WCI  34
MULESHOE 2SSW    N/A     22  21  96 W6        30.04R WCI  15
OLTON 6S         N/A     26  24  90 W10       30.03R WCI  16
PALO DURO SP     N/A     29  26  87 W12       30.03R WCI  19
PAMPA 2E         N/A     29  24  81 W7        29.99R WCI  22
PLAINVIEW 1S     N/A     26  24  93 SW2       30.02S
SILVERTON 7ESE   N/A     27  24  91 W8        30.03R WCI  18
TULIA 2ENE       N/A     27  25  94 W8        30.02R WCI  18
TURKEY 2WSW      N/A     33  28  81 SW8       30.01R WCI  26
UMBARGER 3NNE    N/A     24  22  92 W6        30.02R WCI  17
$$

TXZ033>036-039>041-045>048-241500
TEXAS TECH WEST TEXAS MESONET/SOUTH PLAINS

CITY           SKY/WX    TMP DP  RH WIND       PRES   REMARKS
AIKEN 3WSW       N/A     26  24  93 W7        30.04R WCI  18
ANTON 6SSW       N/A     26  24  95 SW7       30.05R WCI  18
BROWNFIELD 2S    N/A     29  26  89 NW8       30.06S WCI  21
DENVR CTY 7WNW   N/A     25  22  90 NW9       30.05S WCI  15
GAIL 2ESE        N/A     30  27  87 W2        30.06R
LAMESA 2SE       N/A     30  28  90 NW6       30.07R WCI  24
LEVELLAND 4S     N/A     24  22  90 W5        30.05R WCI  18
LUBBOCK 3WNW     N/A     29  25  85 W3        30.06R
MORTON 1ENE      N/A     26  24  94 W6        30.05R WCI  19
ODONNELL 1N      N/A     28  27  94 W7        30.06R WCI  21
PLAINS 3N        N/A     25  23  90 NW5       30.05R WCI  19
RALLS 1SE        N/A     29  25  86 W6        30.05R WCI  23
REESE CENTER     N/A     26  24  92 W6        30.05R WCI  19
SEAGRAVES 1SW    N/A     25  24  94 NW6       30.06R WCI  18
SEMINOLE 2NNE    N/A     30  27  90 NW6       30.06R WCI  24
SLATON 2NE       N/A     29  26  88 W7        30.05R WCI  22
SNYDER 3E        N/A     30  29  94 W3        30.05R
SUNDOWN 8SW      N/A     24  22  91 W6        30.05R WCI  17
TAHOKA 3NNE      N/A     29  26  86 W5        30.04S WCI  24
WOLFFORTH 6SSW   N/A     29  27  90 W6        30.05R WCI  23
$$

TXZ031-032-036>038-042>044-241500-
TEXAS TECH WEST TEXAS MESONET/ROLLING PLAINS

CITY           SKY/WX    TMP DP  RH WIND       PRES   REMARKS
ASPERMONT 3NE    N/A     32  29  88 W3        30.05S
FLUVANNA 3WNW    N/A     31  27  86 W5        30.05R WCI  26
GRAHAM 5SSW      N/A     30  26  86 NW13      30.04S WCI  20
GUTHRIE 10WSW    N/A     32  26  79 SW5       30.03S WCI  27
HASKELL 1NW      N/A     35  30  83 W6        30.04R WCI  30
JAYTON 1SSE      N/A     30  28  93 W5        30.05S WCI  25
KNOX CITY 3NW    N/A     32  29  88 S6        30.05S WCI  27
LK A HENRY 1NW   N/A     31  28  87 W6        30.06R WCI  26
NORTHFIELD 1S    N/A     35  30  79 SW6       30.02R WCI  30
ODELL 4ENE       N/A     35  28  76 W6        30.03R WCI  30
PADUCAH 10SW     N/A     37  27  68 SW6       30.02S WCI  32
POST 1NE         N/A     35  27  72 W8        30.05R WCI  29
RRING SPRGS 3N   N/A     33  28  85 W9        30.02R WCI  25
SEYMOUR 3NW      N/A     34  31  90 W5        30.03R WCI  30
SPUR 1W          N/A     30  27  88 NW7       30.04R WCI  23
WEINERT 2NNE     N/A     34  29  79 W6        30.05R WCI  29
WHITE RVR 6NE    N/A     32  26  77 W3        30.04R
$$

TXZ052-054-060>062-072-078-127-140-154-169-241500-
TEXAS TECH WEST TEXAS MESONET/PERMIAN BASIN/
CONCHO VALLEY/BIG COUNTRY/EDWARDS PLATEAU

CITY           SKY/WX    TMP DP  RH WIND       PRES   REMARKS
JUNCTION 1SSW    N/A     41  32  70 S3        30.08R
MERTZON 3NNE     N/A     39  29  67 W7        30.08S WCI  34
SAN ANGELO 7NW   N/A     36  30  79 NW10      30.06F WCI  29
STRLNG CT 4WSW   N/A     28  25  88 SW2       30.08S
ST LAWRNCE 5SW   N/A     30  25  83 W6        30.07S WCI  24
SWEETWATR 11SW   N/A     30  27  91 S3        30.07R
WALL 1E          N/A     36  30  79 W7        30.07R WCI  31
$$

TXZ055-058-074-075-080-082-241500-
TEXAS TECH WEST TEXAS MESONET/FAR WEST/SOUTHWEST MOUNTAINS/TRANS PECOS

CITY           SKY/WX    TMP DP  RH WIND       PRES   REMARKS
PRSMN GAP BBNP   N/A     40  26  57 S1        30.12R
GUADLPE MTN NP   N/A     37  -4  17 S1        30.09R
$$